Flag for South Africa Weather past 2 weeks in Bloemfontein, South Africa

Now
82 °F

Passing clouds.


Feels Like: 81 °F
Forecast: 63 / 80 °F
Wind: 2 mph from North

Location: Bloemfontein Airport

Current Time: Apr 1, 2015 at 4:53:46 PM

Latest Report: Apr 1, 2015 at 4:00 PM


Visibility: N/A

Pressure: 30.18 "Hg

Humidity: 32%

Dew point: 50 °F

Location of BloemfonteinLocation

Historic Weather in Bloemfontein — Graph

°F

Bloemfontein temperature yesterday

Maximum temperature yesterday: 81 °F (at 2:00 PM)
Minimum temperature yesterday: 52 °F (at 5:00 AM)
Average temperature yesterday: 67 °F

Past Weeks' High & Low Weather Summary

 TemperatureHumidityPressure
High86 °F (Mar 18, 1:00 PM)94% (Mar 19, 6:00 AM)30.30 "Hg (Mar 19, 6:00 AM)
Low48 °F (Mar 28, 5:00 AM)15% (Mar 20, 5:00 PM)29.95 "Hg (Mar 18, 4:00 PM)
Average65 °F65%30.16 "Hg
* Reported Mar 17 3:00 PM — Apr 1 3:00 PM, Bloemfontein, Weather by CustomWeather, © 2015

Note: Actual official high and low records may vary slightly from our data, if they occured in-between our weather recording intervals... More about our weather records

Advertising

Bloemfontein weather history for previous 24 hours

 ConditionsComfort  
Time TempWeatherWind HumidityBarometerVisibility
3:00 PM
Wed, Apr 1
81 °FPassing clouds.2 mph32%30.21 "HgN/A
2:00 PM82 °FScattered clouds.3 mph28%30.21 "HgN/A
1:00 PM81 °FPassing clouds.5 mph34%30.24 "HgN/A
12:00 PM79 °FPassing clouds.3 mph42%30.27 "HgN/A
11:00 AM75 °FSunny.2 mph41%30.30 "Hg10 mi
10:00 AM72 °FPassing clouds.3 mph53%30.30 "HgN/A
9:00 AM66 °FPassing clouds.6 mph68%30.30 "HgN/A
8:00 AM63 °FSunny.No wind73%30.30 "Hg10 mi
7:00 AM54 °FSunny.2 mph88%30.27 "Hg10 mi
6:00 AM54 °FSunny.2 mph88%30.24 "Hg10 mi
5:00 AM54 °FClear.No wind82%30.24 "Hg10 mi
4:00 AM55 °FCool.2 mph88%30.24 "HgN/A
3:00 AM57 °FCool.No wind82%30.21 "HgN/A
2:00 AM55 °FCool.1 mph88%30.24 "HgN/A
1:00 AM59 °FCool.5 mph77%30.24 "HgN/A
12:00 AM61 °FCool.No wind77%30.24 "HgN/A
11:00 PM
Tue, Mar 31
63 °FMild.No wind68%30.24 "HgN/A
10:00 PM66 °FMild.6 mph60%30.24 "HgN/A
9:00 PM66 °FMild.2 mph64%30.24 "HgN/A
8:00 PM64 °FClear.1 mph60%30.24 "Hg10 mi
7:00 PM75 °FClear.3 mph44%30.21 "Hg10 mi
6:00 PM79 °FClear.5 mph37%30.18 "Hg10 mi
5:00 PM81 °FSunny.No wind28%30.18 "Hg10 mi
4:00 PM81 °FSunny.5 mph32%30.18 "Hg10 mi
Weather by CustomWeather, © 2015

See weather overviewHow to use our weather pages